• Processing (Info)

  • MPEC 2008-T36 : 2008 TD1

    The following Minor Planet Electronic Circular may be linked-to from your own Web pages, but must not otherwise be redistributed electronically.

    A form allowing access to any MPEC is at the bottom of this page.


    Read MPEC 2008-T35 Read MPEC 2008-T37


    M.P.E.C. 2008-T36                                Issued 2008 Oct. 3, 17:08 UT
    
         The Minor Planet Electronic Circulars contain information on unusual
             minor planets and routine data on comets.  They are published
       on behalf of Commission 20 of the International Astronomical Union by the
              Minor Planet Center, Smithsonian Astrophysical Observatory,
                              Cambridge, MA 02138, U.S.A.
    
                 Prepared using the Tamkin Foundation Computer Network
    
                                  MPC@CFA.HARVARD.EDU
              URL http://www.cfa.harvard.edu/iau/mpc.html  ISSN 1523-6714
    
                                       2008 TD1
    
    Observations:
         K08T01D* C2008 10 02.27501 23 38 59.96 -01 43 39.9          22.1 V ET036G96
         K08T01D  C2008 10 02.28248 23 39 01.26 -01 43 21.9          22.3 V ET036G96
         K08T01D  C2008 10 02.29000 23 39 02.55 -01 43 03.8          22.1 V ET036G96
         K08T01D  C2008 10 02.29755 23 39 03.81 -01 42 46.7          20.7 V ET036G96
         K08T01D  C2008 10 02.34279 23 39 11.62 -01 40 54.9                 ET036G96
         K08T01D  C2008 10 02.35123 23 39 13.12 -01 40 34.1          20.9 V ET036G96
         K08T01D  C2008 10 02.35962 23 39 14.59 -01 40 14.1          21.9 V ET036G96
         K08T01D  C2008 10 02.36806 23 39 16.07 -01 39 53.6          20.9 V ET036G96
         K08T01D  C2008 10 03.23204 23 42 10.49 -01 04 33.4          21.8 V ET036G96
         K08T01D  C2008 10 03.23303 23 42 10.73 -01 04 30.7          21.7 V ET036G96
         K08T01D  C2008 10 03.23403 23 42 10.90 -01 04 28.4                 ET036G96
         K08T01D  C2008 10 03.23502 23 42 11.07 -01 04 24.6                 ET036G96
         K08T01D HC2008 10 03.24983 23 42 13.67 -01 03 48.4                 ET036291
         K08T01D  C2008 10 03.25390 23 42 14.47 -01 03 39.2                 ET036291
         K08T01D HC2008 10 03.25803 23 42 15.40 -01 03 29.9                 ET036291
         K08T01D  C2008 10 03.36175 23 42 33.52 -00 59 12.6          21.1 R ET036H01
         K08T01D  C2008 10 03.36930 23 42 34.93 -00 58 53.7          21.2 R ET036H01
         K08T01D  C2008 10 03.37602 23 42 36.14 -00 58 37.0          21.4 R ET036H01
    
    Observer details:
    291 LPL/Spacewatch II.  Observer T. H. Bressi.  1.8-m f/2.7 reflector + CCD.
    G96 Mt. Lemmon Survey.  Observer R. E. Hill.  Measurers E. C. Beshore,
        A. Boattini, G. J. Garradd, A. R. Gibbs, A. D. Grauer, R. E. Hill,
        R. A. Kowalski, S. M. Larson, R. H. McNaught.  1.5-m reflector + CCD.
    H01 Magdalena Ridge Observatory, Socorro.  Observer W. H. Ryan.  2.4-m f/8.9
        reflector + CCD.
    
    Orbital elements:
    2008 TD1                                                 Earth MOID = 0.1195 AU
    Epoch 2008 Nov. 30.0 TT = JDT 2454800.5                 MPC
    M  13.68757              (2000.0)            P               Q
    n   0.29973709     Peri.   14.99807     +0.93440254     -0.35620227
    a   2.2112732      Node     5.87250     +0.32326376     +0.84385873
    e   0.4946281      Incl.    1.92790     +0.14964105     +0.40127595
    P   3.29           H   25.0           G   0.15           U   8
    Residuals in seconds of arc
    081002 G96  0.2+  0.0     081002 G96  0.2-  0.3+    081003 291  0.8-  0.3+
    081002 G96  0.5+  0.1-    081002 G96  0.4-  0.3+    081003 291  0.4+  0.6-
    081002 G96  0.5+  0.2-    081003 G96  0.4-  0.1-    081003 291 (3.4+  1.5-)
    081002 G96  0.1-  1.4-    081003 G96  0.5+  0.2+    081003 H01  0.2+  0.2-
    081002 G96  0.5-  0.5+    081003 G96  0.4+  0.0     081003 H01  0.5+  0.1-
    081002 G96  0.1-  0.7+    081003 G96  0.4+  1.3+    081003 H01  0.0   0.2-
    
    Ephemeris:
    2008 TD1                 a,e,i = 2.21, 0.49, 2                   q = 1.1175
    Date    TT    R. A. (2000) Decl.     Delta      r     Elong.  Phase     V
    2008 10 01    23 34.93   -02 33.7    0.132    1.129   165.2    13.1    21.6
    2008 10 11    00 10.90   +04 40.6    0.124    1.119   166.1    12.4    21.4
    2008 10 21    00 53.23   +12 16.5    0.127    1.119   167.6    11.0    21.4
    2008 10 31    01 35.12   +18 25.6    0.142    1.132   168.0    10.5    21.7
    2008 11 10    02 11.28   +22 23.7    0.168    1.155   167.1    11.1    22.1
    
    Sonia Keys                   (C) Copyright 2008 MPC           M.P.E.C. 2008-T36
    

    Read MPEC 2008-T35 Read MPEC 2008-T37


    MPEC number:

    Enter an MPEC number in one of the following forms:

    • 1997-B01 (the full form)
    • J97B01 (the packed version of the full form)
    • B01 (the abbreviated form)